Greensboro, NC

1:03 PM EDT on April 26, 2017 (GMT -0400)
Piedmont Triad International

Weather History for KGSO - December, 2014

Change the Weather History Date:

Thursday, December 25, 2014

  Actual Average Record
Temperature  
Mean Temperature 46 °F 40 °F  
Max Temperature 59 °F 49 °F 74 °F (1955)
Min Temperature 33 °F 30 °F 1 °F (1983)
Degree Days  
Heating Degree Days 19 26  
Month to date heating degree days 519 579  
Since 1 July heating degree days 1269 1259  
Cooling Degree Days 0 0  
Month to date cooling degree days 0 0  
Year to date cooling degree days 1499 1483  
Moisture  
Dew Point 36 °F    
Average Humidity 67    
Maximum Humidity 93    
Minimum Humidity 41    
Precipitation  
Precipitation T in 0.10 in 1.41 in (1945)
Month to date precipitation 1.63 2.44  
Year to date precipitation 35.78 41.66  
Snow  
Snow 0.00 in 0.10 in 4.20 in (2010)
Month to date snowfall T 0.5  
Since 1 July snowfall T 0.6  
Snow Depth 0.00 in    
Sea Level Pressure  
Sea Level Pressure 30.00 in    
Wind  
Wind Speed 10 mph (WNW)    
Max Wind Speed 21 mph    
Max Gust Speed 26 mph    
Visibility 10 miles    
Events Rain    
T = Trace of Precipitation, MM = Missing Value Source: NWS Daily Summary

Daily Weather History Graph

Daily Weather History Graph

Search for Another Location

Airport or City:

Trip Planner

Search our weather history database for the weather conditions in past years. The results will help you decide how hot, cold, wet, or windy it might be!

Date:

Astronomy

Dec. 25, 2014 Rise Set
Actual Time 7:28 AM EST 5:11 PM EST
Civil Twilight 6:59 AM EST 5:39 PM EST
Nautical Twilight 6:27 AM EST 6:12 PM EST
Astronomical Twilight 5:56 AM EST 6:43 PM EST
Moon 10:07 AM EST (12/25) 9:35 PM EST (12/25)
Length of Visible Light 10h 39m
Length of Day
9h 42m
Waxing Crescent, 17% of the Moon is Illuminated
Dec 25
Waxing Crescent
Dec 28
First Quarter
Jan 4
Full
Jan 13
Last Quarter
Jan 20
New

Hourly Weather History & Observations

Time (EST) Temp. Windchill Dew Point Humidity Pressure Visibility Wind Dir Wind Speed Gust Speed Precip Events Conditions
12:41 AM 55.4 °F - 53.6 °F 94% 29.68 in 10.0 mi West 8.1 mph - 0.00 in Rain Light Rain
12:44 AM 55.4 °F - 53.6 °F 94% 29.69 in 10.0 mi West 9.2 mph - 0.00 in Rain Light Rain
12:54 AM 55.0 °F - 53.1 °F 93% 29.68 in 10.0 mi West 5.8 mph - 0.00 in   Overcast
1:54 AM 55.9 °F - 52.0 °F 87% 29.69 in 10.0 mi WNW 11.5 mph - 0.00 in   Overcast
2:54 AM 52.0 °F - 45.0 °F 77% 29.73 in 10.0 mi WNW 11.5 mph - N/A   Mostly Cloudy
3:54 AM 50.0 °F - 43.0 °F 77% 29.77 in 10.0 mi WNW 15.0 mph - N/A   Scattered Clouds
4:54 AM 48.9 °F - 39.0 °F 69% 29.81 in 10.0 mi WNW 13.8 mph - N/A   Overcast
5:54 AM 46.9 °F - 37.9 °F 71% 29.84 in 10.0 mi WNW 6.9 mph - N/A   Overcast
6:54 AM 46.9 °F - 37.0 °F 68% 29.90 in 10.0 mi WNW 9.2 mph - N/A   Overcast
7:54 AM 45.0 °F 40.6 °F 36.0 °F 71% 29.96 in 10.0 mi WNW 8.1 mph - N/A   Mostly Cloudy
8:54 AM 48.0 °F - 36.0 °F 63% 29.99 in 10.0 mi WNW 16.1 mph 20.7 mph N/A   Partly Cloudy
9:54 AM 48.9 °F - 33.1 °F 54% 30.02 in 10.0 mi WNW 15.0 mph 21.9 mph N/A   Partly Cloudy
10:54 AM 51.1 °F - 32.0 °F 48% 30.06 in 10.0 mi NW 12.7 mph 21.9 mph N/A   Scattered Clouds
11:54 AM 52.0 °F - 30.9 °F 45% 30.06 in 10.0 mi NW 17.3 mph 21.9 mph N/A   Partly Cloudy
12:54 PM 52.0 °F - 30.9 °F 45% 30.06 in 10.0 mi NW 12.7 mph 19.6 mph N/A   Partly Cloudy
1:54 PM 53.1 °F - 30.9 °F 43% 30.07 in 10.0 mi WNW 15.0 mph - N/A   Clear
2:54 PM 53.1 °F - 30.9 °F 43% 30.09 in 10.0 mi WNW 11.5 mph - N/A   Clear
3:54 PM 52.0 °F - 30.9 °F 45% 30.11 in 10.0 mi WNW 12.7 mph - N/A   Clear
4:54 PM 50.0 °F - 30.0 °F 46% 30.12 in 10.0 mi NW 5.8 mph - N/A   Clear
5:54 PM 45.0 °F 41.2 °F 30.0 °F 56% 30.15 in 10.0 mi WNW 6.9 mph - N/A   Clear
6:54 PM 41.0 °F 37.1 °F 30.0 °F 65% 30.21 in 10.0 mi West 5.8 mph - N/A   Clear
7:54 PM 42.1 °F 38.4 °F 30.9 °F 65% 30.21 in 10.0 mi NW 5.8 mph - N/A   Clear
8:54 PM 41.0 °F 37.1 °F 30.0 °F 65% 30.22 in 10.0 mi NW 5.8 mph - N/A   Clear
9:54 PM 35.1 °F 32.2 °F 28.9 °F 78% 30.25 in 10.0 mi SW 3.5 mph - N/A   Clear
10:54 PM 35.1 °F - 28.9 °F 78% 30.25 in 10.0 mi Calm Calm - N/A   Clear
11:54 PM 34.0 °F 31.0 °F 28.9 °F 82% 30.26 in 10.0 mi WSW 3.5 mph - N/A   Clear